Home   Weather   Columbus Park   Past weeks
Flag for USA

Past Weather in Columbus Park, New York, USA — Yesterday and Last 2 Weeks

Now
74 °F

Heavy rain. Fog.


Feels Like: 71 °F
Forecast: 92 / 74 °F
Wind: 8 mph from Southwest

Location: New York City - Central Park

Current Time: Jul 6, 2020 at 5:32:10 pm

Latest Report: Jul 6, 2020 at 4:21 pm


Visibility: 1 mi

Pressure: 30.11 "Hg

Humidity: 94%

Dew Point: 72 °F

Location of Columbus ParkLocation

Past Weather in Columbus Park — Graph

°F

Columbus Park Temperature Yesterday

Maximum temperature yesterday: 92 °F (at 4:51 pm)
Minimum temperature yesterday: 72 °F (at 1:51 am)
Average temperature yesterday: 80 °F

High & Low Weather Summary for the Past Weeks

 TemperatureHumidityPressure
High95 °F (Jul 6, 1:51 pm)97% (Jun 29, 7:51 pm)30.09 "Hg (Jun 29, 7:51 pm)
Low66 °F (Jun 29, 6:51 pm)26% (Jul 5, 4:51 pm)29.63 "Hg (Jun 24, 2:51 am)
Average77 °F65%29.86 "Hg
* Reported Jun 21 4:51 pm — Jul 6 4:10 pm, Columbus Park. Weather by CustomWeather, © 2020

Note: Actual official high and low records may vary slightly from our data, if they occured in-between our weather recording intervals... More about our weather records

Columbus Park Weather History for the Previous 24 Hours

Scroll right to see more
 ConditionsComfort  
Time TempWeatherWind HumidityBarometerVisibility
4:10 pm
Mon, Jul 6
77 °FRain. Partly sunny.5 mph74%30.09 "Hg2 mi
2:51 pm93 °FSunny.N/A34%29.98 "Hg10 mi
1:51 pm95 °FSunny.3 mph31%29.99 "Hg10 mi
12:51 pm94 °FSunny.No wind30%30.02 "Hg10 mi
11:51 am92 °FSunny.No wind32%30.02 "Hg10 mi
10:51 am86 °FSunny.No wind39%30.03 "Hg10 mi
9:51 am86 °FSunny.6 mph42%30.03 "Hg10 mi
8:51 am84 °FSunny.3 mph45%30.02 "Hg10 mi
7:51 am80 °FSunny.No wind60%30.01 "Hg10 mi
6:51 am77 °FSunny.No wind62%30.00 "Hg10 mi
5:51 am75 °FSunny.No wind66%29.98 "Hg10 mi
4:51 am77 °FClear.No wind60%29.96 "Hg10 mi
3:51 am78 °FClear.No wind62%29.95 "Hg10 mi
2:51 am79 °FClear.No wind60%29.95 "Hg10 mi
1:51 am81 °FClear.6 mph53%29.95 "Hg10 mi
12:51 am79 °FClear.3 mph74%29.95 "Hg8 mi
11:51 pm
Sun, Jul 5
80 °FClear.No wind69%29.94 "Hg9 mi
10:51 pm80 °FClear.No wind71%29.94 "Hg9 mi
9:51 pm81 °FClear.No wind65%29.94 "Hg9 mi
8:51 pm83 °FClear.3 mph55%29.93 "Hg10 mi
7:51 pm84 °FSunny.No wind49%29.91 "Hg10 mi
6:51 pm86 °FSunny.3 mph46%29.90 "Hg10 mi
5:51 pm89 °FSunny.6 mph30%29.89 "Hg10 mi
Weather by CustomWeather, © 2020

See weather overview